$DATE,$TIME,DM0600B,DM0602B,DM0604B,DM0614B,DM0616B,DM0618B,DM0624B,DM0628B,DM0630B,DM0634B,DM0606B,DM0608B,DM0610B
10/07/94,00:00:00,38,23,30,19,50,28,76,75,38,0,8,5,6
10/07/94,00:05:00,32,18,31,12,52,29,77,75,46,0,8,5,6
10/07/94,00:10:00,26,18,34,10,51,29,77,75,52,0,8,5,6
10/07/94,00:15:00,32,22,24,20,49,27,74,75,47,0,8,6,6
10/07/94,00:20:00,11,14,37,8,51,28,77,75,47,0,8,6,6
10/07/94,00:25:00,12,10,21,9,50,28,76,75,38,0,7,6,6
10/07/94,00:30:00,27,20,27,14,50,28,75,75,38,0,8,6,6
10/07/94,00:35:00,11,8,15,7,51,29,77,75,38,0,8,6,5
10/07/94,00:40:00,3,10,11,3,53,30,80,75,38,0,8,6,6
10/07/94,00:45:00,14,13,16,3,53,29,79,76,38,0,8,6,6
10/07/94,00:50:00,19,16,15,5,47,26,70,76,47,0,8,6,6
10/07/94,00:55:00,25,14,17,13,38,22,59,76,47,0,8,6,6
10/07/94,01:00:00,17,16,16,11,32,18,47,76,41,0,8,6,7
10/07/94,01:05:00,9,5,9,10,31,18,47,77,41,0,8,6,7
10/07/94,01:10:00,12,8,10,2,33,18,50,77,42,0,8,7,7
10/07/94,01:15:00,26,21,25,16,33,19,50,77,42,0,8,18,6
10/07/94,01:20:00,11,7,11,9,35,20,52,77,42,0,7,17,6
10/07/94,01:25:00,10,4,12,8,37,21,56,77,33,0,7,13,6
10/07/94,01:30:00,25,15,14,18,48,27,72,77,33,0,8,10,6
10/07/94,01:35:00,21,20,24,17,45,25,69,76,33,0,8,9,6
10/07/94,01:40:00,22,16,32,15,45,25,68,76,33,0,8,8,6
10/07/94,01:45:00,18,13,15,18,42,24,64,76,33,0,8,8,6
10/07/94,01:50:00,23,25,30,11,42,23,63,75,33,0,8,7,6
10/07/94,01:55:00,22,15,23,4,49,27,73,76,41,0,8,7,6
10/07/94,02:00:00,17,8,16,10,60,32,88,76,41,0,8,6,6
10/07/94,02:05:00,29,18,24,18,61,33,91,75,41,0,7,6,7
10/07/94,02:10:00,30,24,32,9,55,30,81,75,41,0,7,6,6
10/07/94,02:15:00,22,19,26,11,54,29,80,75,41,0,7,7,6
10/07/94,02:20:00,22,16,25,18,54,29,82,76,33,0,7,7,6
10/07/94,02:25:00,28,23,33,5,36,21,55,76,33,0,7,6,5
10/07/94,02:30:00,37,26,34,16,40,23,61,76,33,0,8,6,5
10/07/94,02:35:00,34,24,32,9,37,21,57,75,41,0,7,6,5
10/07/94,02:40:00,27,25,34,12,34,19,52,73,41,0,8,6,5
10/07/94,02:45:00,39,29,37,23,32,19,49,72,45,0,7,6,5
10/07/94,02:50:00,50,31,39,28,33,19,51,72,45,0,8,5,5
10/07/94,02:55:00,45,33,39,24,23,13,36,72,45,0,8,5,5
10/07/94,03:00:00,51,33,37,17,25,14,39,72,45,0,8,5,5
10/07/94,03:05:00,36,26,37,24,28,16,43,72,41,0,7,5,6
10/07/94,03:10:00,44,29,39,13,27,16,42,72,41,0,7,6,6
10/07/94,03:15:00,43,30,37,22,30,17,46,72,41,0,7,6,6
10/07/94,03:20:00,37,26,37,12,27,15,41,72,41,0,7,6,6
10/07/94,03:25:00,31,16,33,8,28,16,43,73,41,0,7,6,6
10/07/94,03:30:00,21,20,32,10,30,17,46,73,41,0,7,6,6
10/07/94,03:35:00,11,9,15,11,29,17,45,73,51,0,7,6,6
10/07/94,03:40:00,8,5,17,2,32,19,50,73,42,0,7,6,5
10/07/94,03:45:00,21,13,27,8,35,20,54,73,42,0,8,6,6
10/07/94,03:50:00,18,16,14,11,39,25,63,73,42,0,8,6,6
10/07/94,03:55:00,16,13,23,11,20,12,32,73,42,0,8,6,6
10/07/94,04:00:00,14,13,23,13,30,17,46,74,42,0,8,7,6
10/07/94,04:05:00,14,14,20,7,28,16,43,74,46,0,8,19,6
10/07/94,04:10:00,22,16,21,19,23,13,35,74,46,0,8,17,6
10/07/94,04:15:00,7,10,19,8,23,13,36,74,46,0,8,13,7
10/07/94,04:20:00,14,14,13,9,27,15,44,74,46,0,12,10,6
10/07/94,04:25:00,18,17,23,14,23,13,36,74,46,0,19,9,6
10/07/94,04:30:00,34,33,43,19,20,12,31,74,46,0,16,8,6
10/07/94,04:35:00,30,26,34,16,24,15,36,74,45,0,13,7,6
10/07/94,04:40:00,45,31,39,24,31,18,48,73,45,0,11,7,6
10/07/94,04:45:00,41,30,36,23,29,17,45,72,45,0,10,6,6
10/07/94,04:50:00,19,19,34,12,17,10,26,73,45,0,9,6,6
10/07/94,04:55:00,26,25,37,8,17,10,27,73,45,0,9,6,6
10/07/94,05:00:00,30,27,44,23,21,13,31,73,45,0,8,6,6
10/07/94,05:05:00,28,24,31,23,14,8,22,73,59,0,8,7,6
10/07/94,05:10:00,39,28,42,20,25,16,42,73,45,0,8,6,6
10/07/94,05:15:00,37,32,40,12,17,10,27,76,45,0,7,6,6
10/07/94,05:20:00,33,21,29,14,26,16,41,76,45,0,7,6,6
10/07/94,05:25:00,32,27,29,22,23,14,36,77,45,0,7,6,6
10/07/94,05:30:00,42,33,42,21,21,13,33,76,46,0,8,6,6
10/07/94,05:35:00,29,26,37,24,21,12,32,76,46,0,8,6,6
10/07/94,05:40:00,45,32,46,30,21,12,33,76,45,0,8,6,5
10/07/94,05:45:00,37,29,37,24,22,13,34,76,45,0,7,6,5
10/07/94,05:50:00,38,28,38,24,21,12,33,76,39,0,7,6,5
10/07/94,05:55:00,37,27,39,23,20,12,31,76,37,0,7,5,5
10/07/94,06:00:00,30,31,41,5,11,7,18,76,37,0,7,6,5
10/07/94,06:05:00,37,30,37,22,15,9,24,76,37,0,7,6,5
10/07/94,06:10:00,34,27,38,6,11,7,18,76,37,0,7,6,5
10/07/94,06:15:00,45,35,46,12,9,6,16,76,37,0,7,5,5
10/07/94,06:20:00,34,30,40,23,7,4,12,76,37,0,7,5,5
10/07/94,06:25:00,36,31,36,21,12,7,20,76,37,0,7,5,6
10/07/94,06:30:00,30,28,38,12,12,7,20,76,37,0,7,5,6
10/07/94,06:35:00,44,34,47,14,10,6,17,76,37,0,7,5,6
10/07/94,06:40:00,50,32,36,24,8,5,13,76,37,0,8,5,5
10/07/94,06:45:00,38,34,40,24,5,3,9,77,37,0,8,5,5
10/07/94,06:50:00,41,33,44,32,5,3,9,76,37,0,7,5,5
10/07/94,06:55:00,28,23,30,25,3,2,7,76,37,0,7,6,5
10/07/94,07:00:00,48,38,44,13,3,2,6,76,37,0,7,6,5
10/07/94,07:05:00,21,15,29,16,4,3,8,77,37,0,7,6,5
10/07/94,07:10:00,25,20,29,5,4,3,8,77,37,0,7,6,5
10/07/94,07:15:00,26,22,33,13,3,2,6,77,37,0,7,6,5
10/07/94,07:20:00,15,13,13,3,2,2,5,78,37,0,9,16,6
10/07/94,07:25:00,9,11,17,2,2,2,4,77,37,0,18,24,18
10/07/94,07:30:00,9,15,12,10,2,1,4,77,37,0,20,16,14
10/07/94,07:35:00,17,15,20,19,1,1,4,78,37,0,15,12,11
10/07/94,07:40:00,16,17,24,19,1,1,3,78,38,0,13,12,9
10/07/94,07:45:00,12,13,19,13,0,1,2,78,38,0,16,24,10
10/07/94,07:50:00,17,18,27,17,0,1,2,78,37,0,22,19,19
10/07/94,07:55:00,26,28,29,25,0,1,2,78,37,0,16,14,13
10/07/94,08:00:00,11,3,14,6,0,1,2,78,37,0,14,12,11
10/07/94,08:05:00,24,19,23,20,0,0,1,78,38,0,17,22,9
10/07/94,08:10:00,26,30,37,26,0,0,1,77,37,0,20,21,7
10/07/94,08:15:00,17,16,23,14,0,0,0,78,46,0,15,14,7
10/07/94,08:20:00,0,2,7,0,0,0,0,78,46,0,14,15,14
10/07/94,08:25:00,0,0,0,0,0,0,0,79,38,0,23,27,26
10/07/94,08:30:00,0,0,2,0,0,0,0,79,46,0,33,34,23
10/07/94,08:35:00,0,0,0,0,0,0,0,80,46,0,23,24,27
10/07/94,08:40:00,0,0,0,0,0,0,0,80,46,0,32,35,33
10/07/94,08:45:00,0,0,0,0,0,0,0,80,46,0,40,41,24
10/07/94,08:50:00,0,0,0,0,0,0,0,80,30,0,26,26,39
10/07/94,08:55:00,0,0,0,0,0,0,0,80,30,0,37,37,26
10/07/94,09:00:00,0,0,0,0,0,0,0,80,30,0,34,37,38
10/07/94,09:05:00,0,0,0,0,0,0,0,81,30,0,30,29,32
10/07/94,09:10:00,0,0,0,0,0,0,0,80,38,0,40,40,32
10/07/94,09:15:00,0,0,0,0,0,0,0,80,40,0,31,42,36
10/07/94,09:20:00,0,0,0,0,0,0,0,80,40,0,33,40,27
10/07/94,09:25:00,0,0,0,0,0,0,0,80,40,0,42,43,40
10/07/94,09:30:00,0,0,0,0,0,0,0,81,48,0,28,27,28
10/07/94,09:35:00,6,0,7,0,0,0,0,77,38,0,37,39,42
10/07/94,09:40:00,3,0,3,0,0,0,0,74,35,0,39,37,29
10/07/94,09:45:00,0,0,1,0,0,0,0,74,35,0,29,31,37
10/07/94,09:50:00,0,0,0,0,0,0,0,74,35,0,40,42,34
10/07/94,09:55:00,0,0,0,0,0,0,0,74,35,0,32,29,28
10/07/94,10:00:00,0,0,0,0,0,0,0,75,35,0,33,33,39
10/07/94,10:05:00,0,0,0,0,0,0,0,74,35,0,42,43,27
10/07/94,10:10:00,0,0,0,0,0,0,0,74,35,0,29,27,41
10/07/94,10:15:00,0,0,0,0,0,0,0,74,36,0,36,37,29
10/07/94,10:20:00,0,0,0,0,0,0,0,74,35,0,41,43,40
10/07/94,10:25:00,0,0,0,0,0,0,0,77,35,0,28,27,33
10/07/94,10:30:00,0,0,0,0,0,0,0,77,32,0,39,39,36
10/07/94,10:35:00,0,0,0,0,0,0,0,77,32,0,42,42,36
10/07/94,10:40:00,0,0,0,0,0,0,0,77,32,0,29,27,28
10/07/94,10:45:00,0,0,0,0,0,0,0,77,32,0,40,40,42
10/07/94,10:50:00,0,0,0,0,0,0,0,77,32,0,33,34,28
10/07/94,10:55:00,0,0,0,0,0,0,0,75,32,0,33,32,44
10/07/94,11:00:00,0,0,0,0,0,0,0,74,32,0,43,42,30
10/07/94,11:05:00,0,0,0,0,0,0,0,74,32,0,42,42,37
10/07/94,11:10:00,0,0,0,0,0,0,0,74,32,0,29,42,34
10/07/94,11:15:00,0,0,0,0,0,0,0,74,32,0,37,41,28
10/07/94,11:20:00,0,0,0,0,0,0,0,74,32,0,38,31,39
10/07/94,11:25:00,0,0,0,0,0,0,0,75,32,0,30,34,28
10/07/94,11:30:00,0,0,0,0,0,0,0,74,32,0,41,43,39
10/07/94,11:35:00,0,0,0,0,0,0,0,74,32,0,29,26,33
10/07/94,11:40:00,0,0,0,0,0,0,0,74,32,0,36,38,33
10/07/94,11:45:00,0,0,0,0,0,0,0,74,32,0,43,43,37
10/07/94,11:50:00,0,0,0,0,0,0,0,75,32,0,28,27,28
10/07/94,11:55:00,0,0,0,0,0,0,0,74,32,0,40,41,42
10/07/94,12:00:00,0,0,0,0,0,0,0,74,32,0,34,32,30
10/07/94,12:05:00,0,0,0,0,0,0,0,75,32,0,32,32,41
10/07/94,12:10:00,0,0,0,0,0,0,0,74,32,0,43,43,33
10/07/94,12:15:00,0,0,0,0,0,0,0,75,32,0,28,26,30
10/07/94,12:20:00,0,0,0,0,0,0,0,74,32,0,36,36,39
10/07/94,12:25:00,0,0,0,0,0,0,0,74,32,0,43,43,27
10/07/94,12:30:00,0,0,0,0,0,0,0,74,32,0,29,27,42
10/07/94,12:35:00,0,0,0,0,0,0,0,75,32,0,39,40,29
10/07/94,12:40:00,0,0,0,0,0,0,0,75,32,0,38,37,40
10/07/94,12:45:00,0,0,0,0,0,0,0,74,32,0,31,29,32
10/07/94,12:50:00,0,0,0,0,0,0,0,74,32,0,42,42,33
10/07/94,12:55:00,0,0,0,0,0,0,0,74,32,0,31,32,37
10/07/94,13:00:00,0,0,0,0,0,0,0,75,32,0,35,33,28
10/07/94,13:05:00,0,0,0,0,0,0,0,75,32,0,43,43,40
10/07/94,13:10:00,0,0,0,0,0,0,0,75,32,0,28,26,28
10/07/94,13:15:00,0,0,0,0,0,0,0,74,32,0,39,38,43
10/07/94,13:20:00,0,0,0,0,0,0,0,74,32,0,38,41,30
10/07/94,13:25:00,0,0,0,0,0,0,0,75,32,0,31,28,41
10/07/94,13:30:00,0,0,0,0,0,0,0,75,32,0,42,42,33
10/07/94,13:35:00,0,0,0,0,0,0,0,75,32,0,28,31,29
10/07/94,13:40:00,0,0,0,0,0,0,0,74,32,0,36,33,39
10/07/94,13:45:00,0,0,0,0,0,0,0,75,32,0,42,44,28
10/07/94,13:50:00,0,0,0,0,0,0,0,75,32,0,29,26,42
10/07/94,13:55:00,0,0,0,0,0,0,0,75,53,0,41,38,30
10/07/94,14:00:00,0,0,0,0,0,0,0,74,32,0,34,41,39
10/07/94,14:05:00,0,0,0,0,0,0,0,75,32,0,33,28,33
10/07/94,14:10:00,0,0,0,0,0,0,0,75,32,0,43,41,32
10/07/94,14:15:00,0,0,0,0,0,0,0,75,32,0,28,33,37
10/07/94,14:20:00,0,0,0,0,0,0,0,74,32,0,37,32,28
10/07/94,14:25:00,0,0,0,0,0,0,0,74,32,0,40,44,42
10/07/94,14:30:00,0,0,0,0,0,0,0,75,32,0,29,26,29
10/07/94,14:35:00,0,0,0,0,0,0,0,75,32,0,41,39,41
10/07/94,14:40:00,0,0,0,0,0,0,0,75,32,0,32,39,31
10/07/94,14:45:00,0,0,0,0,0,0,0,75,45,0,34,30,35
10/07/94,14:50:00,0,0,0,0,0,0,0,74,32,0,44,43,37
10/07/94,14:55:00,0,0,0,0,0,0,0,75,32,0,27,27,28
10/07/94,15:00:00,0,0,0,0,0,0,0,75,32,0,38,35,42
10/07/94,15:05:00,0,0,0,0,0,0,0,75,32,0,39,43,28
10/07/94,15:10:00,0,0,0,0,0,0,0,74,32,0,30,27,43
10/07/94,15:15:00,0,0,0,0,0,0,0,75,32,0,42,40,32
10/07/94,15:20:00,0,0,0,0,0,0,0,74,32,0,30,36,35
10/07/94,15:25:00,0,0,0,0,0,0,0,75,32,0,35,31,37
10/07/94,15:30:00,0,0,0,0,0,0,0,74,32,0,43,43,28
10/07/94,15:35:00,0,0,0,0,0,0,0,75,32,0,28,27,41
10/07/94,15:40:00,0,0,0,0,0,0,0,74,32,0,39,36,29
10/07/94,15:45:00,0,0,0,0,0,0,0,74,32,0,38,43,41
10/07/94,15:50:00,0,0,0,0,0,0,0,75,32,0,31,27,33
10/07/94,15:55:00,0,0,0,0,0,0,0,74,32,0,42,41,33
10/07/94,16:00:00,0,0,0,0,0,0,0,75,32,0,31,36,35
10/07/94,16:05:00,0,0,0,0,0,0,0,74,32,0,35,32,29
10/07/94,16:10:00,0,0,0,0,0,0,0,74,32,0,43,44,41
10/07/94,16:15:00,0,0,0,0,0,0,0,75,32,0,28,26,29
10/07/94,16:20:00,0,0,0,0,0,0,0,75,32,0,39,38,41
10/07/94,16:25:00,0,0,0,0,0,0,0,75,32,0,38,43,32
10/07/94,16:30:00,0,0,0,0,0,0,0,74,32,0,31,27,34
10/07/94,16:35:00,0,0,0,0,0,0,0,74,32,0,42,41,36
10/07/94,16:40:00,0,0,0,0,0,0,0,74,32,0,29,32,27
10/07/94,16:45:00,0,0,0,0,0,0,0,75,32,0,36,33,41
10/07/94,16:50:00,0,0,0,0,0,0,0,75,32,0,43,44,28
10/07/94,16:55:00,0,0,0,0,0,0,0,74,32,0,28,26,42
10/07/94,17:00:00,0,0,0,0,0,0,0,74,32,0,39,37,31
10/07/94,17:05:00,0,0,0,0,0,0,1,74,32,0,36,41,33
10/07/94,17:10:00,0,0,0,0,0,0,1,75,32,0,32,29,37
10/07/94,17:15:00,0,0,0,0,0,1,2,75,32,0,42,41,28
10/07/94,17:20:00,0,0,0,0,1,1,2,74,32,0,28,31,39
10/07/94,17:25:00,0,0,0,0,1,1,3,74,32,0,37,34,29
10/07/94,17:30:00,0,0,0,0,1,1,3,74,32,0,39,43,40
10/07/94,17:35:00,0,0,0,0,1,1,3,75,32,0,29,26,32
10/07/94,17:40:00,0,0,0,0,1,1,3,75,32,0,40,38,34
10/07/94,17:45:00,0,0,0,0,2,1,4,74,32,0,35,38,36
10/07/94,17:50:00,0,0,0,0,2,1,4,74,32,0,32,30,28
10/07/94,17:55:00,0,0,0,0,2,2,4,74,32,0,43,42,42
10/07/94,18:00:00,0,0,0,0,2,2,5,74,32,0,27,26,29
10/07/94,18:05:00,0,0,0,0,3,2,6,75,32,0,37,36,41
10/07/94,18:10:00,0,0,0,0,3,2,6,74,32,0,36,39,32
10/07/94,18:15:00,0,0,0,0,4,2,7,74,32,0,30,28,33
10/07/94,18:20:00,0,0,0,0,3,2,6,74,32,0,42,41,37
10/07/94,18:25:00,0,0,0,0,3,2,6,74,32,0,28,28,27
10/07/94,18:30:00,0,0,0,0,3,2,6,74,32,0,36,35,42
10/07/94,18:35:00,0,0,0,0,3,2,6,75,32,0,39,42,28
10/07/94,18:40:00,0,0,0,0,4,2,7,74,32,0,30,27,39
10/07/94,18:45:00,0,0,0,0,5,3,8,74,32,0,42,41,34
10/07/94,18:50:00,0,0,0,0,8,4,12,74,32,0,27,28,27
10/07/94,18:55:00,0,0,0,0,5,3,9,74,32,0,35,33,40
10/07/94,19:00:00,0,0,0,0,6,4,11,74,30,0,38,42,27
10/07/94,19:05:00,0,0,0,0,9,6,15,74,30,0,29,26,40
10/07/94,19:10:00,0,0,0,0,13,7,22,76,30,0,41,39,31
10/07/94,19:15:00,0,0,0,0,14,9,23,74,30,0,26,28,27
10/07/94,19:20:00,0,0,0,0,17,10,28,74,30,0,35,32,38
10/07/94,19:25:00,0,0,0,0,11,6,17,74,30,0,32,37,25
10/07/94,19:30:00,0,0,0,0,8,5,14,74,30,0,29,28,34
10/07/94,19:35:00,0,0,0,0,8,5,13,74,30,0,40,40,33
10/07/94,19:40:00,0,0,0,0,9,6,16,74,30,0,25,25,24
10/07/94,19:45:00,0,0,0,0,11,7,18,127,30,0,36,35,37
10/07/94,19:50:00,0,0,0,0,10,7,17,74,30,0,39,40,33
10/07/94,19:55:00,0,0,0,0,15,10,24,74,30,0,28,26,26
10/07/94,20:00:00,0,0,0,0,8,5,13,74,30,0,40,39,38
10/07/94,20:05:00,0,0,0,0,10,7,17,74,30,0,26,25,28
10/07/94,20:10:00,0,0,0,0,15,10,25,77,30,0,35,34,33
10/07/94,20:15:00,0,0,0,0,18,13,30,78,30,0,31,35,32
10/07/94,20:20:00,0,0,0,0,19,13,32,77,30,0,30,28,24
10/07/94,20:25:00,0,0,0,0,19,14,33,77,30,0,36,37,33
10/07/94,20:30:00,0,0,0,0,20,14,34,77,30,0,25,25,30
10/07/94,20:35:00,0,0,0,0,21,15,35,77,30,0,36,36,23
10/07/94,20:40:00,0,0,0,0,21,15,36,77,38,0,23,24,33
10/07/94,20:45:00,0,0,0,0,22,16,37,77,46,0,33,32,28
10/07/94,20:50:00,0,0,0,0,22,16,37,77,46,0,30,33,24
10/07/94,20:55:00,0,0,0,0,23,17,39,79,46,0,29,28,36
10/07/94,21:00:00,0,0,0,0,22,17,39,78,46,0,36,38,25
10/07/94,21:05:00,0,0,0,0,23,18,38,78,46,0,26,25,28
10/07/94,21:10:00,0,0,0,0,24,18,40,76,44,0,36,35,34
10/07/94,21:15:00,0,0,0,0,25,19,45,76,48,0,24,26,25
10/07/94,21:20:00,0,0,0,0,26,19,44,76,52,0,33,32,31
10/07/94,21:25:00,0,0,0,0,25,20,43,76,52,0,28,32,31
10/07/94,21:30:00,0,0,0,0,26,20,45,76,51,0,29,28,23
10/07/94,21:35:00,0,0,0,0,29,21,48,76,51,0,35,37,32
10/07/94,21:40:00,0,0,0,0,29,21,48,76,51,0,27,26,30
10/07/94,21:45:00,0,0,0,0,30,21,50,76,51,0,34,34,23
10/07/94,21:50:00,0,0,0,0,33,22,54,76,51,0,29,30,32
10/07/94,21:55:00,0,0,0,0,33,22,53,76,51,0,28,28,28
10/07/94,22:00:00,0,0,0,0,36,23,57,76,51,0,34,35,22
10/07/94,22:05:00,0,0,0,0,37,23,58,76,51,0,23,24,32
10/07/94,22:10:00,0,0,0,0,36,24,59,76,51,0,33,35,24
10/07/94,22:15:00,0,0,0,0,43,25,66,76,51,0,24,23,23
10/07/94,22:20:00,0,0,0,0,49,29,74,75,51,0,27,29,30
10/07/94,22:25:00,0,0,0,0,44,24,64,76,51,0,27,26,18
10/07/94,22:30:00,0,0,0,0,53,29,79,75,51,0,21,24,29
10/07/94,22:35:00,0,0,0,0,37,20,56,75,51,0,30,30,17
10/07/94,22:40:00,0,0,0,0,49,27,74,75,51,0,22,20,27
10/07/94,22:45:00,0,0,0,0,49,27,74,75,51,0,23,28,17
10/07/94,22:50:00,0,0,0,0,22,13,33,75,51,0,28,26,26
10/07/94,22:55:00,0,0,0,0,15,9,24,76,51,0,23,24,24
10/07/94,23:00:00,0,0,0,0,14,8,23,76,51,0,34,36,27
10/07/94,23:05:00,0,0,0,0,43,24,66,76,51,0,26,23,32
10/07/94,23:10:00,0,0,0,0,53,29,79,75,51,0,29,31,20
10/07/94,23:15:00,0,0,0,0,33,17,50,75,51,0,26,26,26
10/07/94,23:20:00,0,0,0,0,56,31,84,75,51,0,26,26,27
10/07/94,23:25:00,0,0,0,0,52,29,78,75,51,0,29,29,20
10/07/94,23:30:00,0,0,0,0,46,25,69,75,51,0,20,20,23
10/07/94,23:35:00,0,0,0,0,50,27,75,75,51,0,26,29,20
10/07/94,23:40:00,0,0,0,0,61,34,92,74,51,0,24,23,16
10/07/94,23:45:00,0,0,0,0,57,31,85,74,51,0,18,17,22
10/07/94,23:50:00,0,0,0,0,55,30,83,75,51,0,20,26,15
10/07/94,23:55:00,0,0,0,0,54,30,81,75,51,0,26,23,18
10/08/94,00:00:00,0,0,0,0,53,30,80,75,43,0,19,17,19
